Find Starlink 32950

NORAD ID: 63566 Int'l Des: 2025-075 Owner: SPXS Country: US Constellation: starlink operational
LEOCIRCULAR

Live-Position

3D-Globus wird geladen...

Über Starlink 32950

Beschreibung wird geladen...

Nächste Überflüge

Passes for default location (London). Set your location on the main map for personalized predictions.

Höhenverlauf

Loading altitude history...

Zweizeiliger Elementsatz

1 63566U 25075U 26123.24012455 .00022858 00000-0 83756-3 0 9999
2 63566 43.0024 322.2000 0001418 289.3743 70.6955 15.27580941 60279
Epoch: 3. Mai 2026 • Age: 19 hours

Aktueller Status

Höhe 485.3 km
Geschwindigkeit 7.62 km/s
Subsatellitenpunkt -15.76°S, 70.98°E
Startdatum 13. Apr. 2025
Alter 1 years
Typ internet

Technische Details

Klassifizierung Payload
Masse 730.00 kg
Trockenmasse 700.00 kg
Gesamtmasse 730.00 kg
Länge 0.30 m
Durchmesser 4.10 m
Spannweite 29.00 m
Form Box + pan
Hersteller SPXS
Bus-Typ Starlink V2M
Phasenstatus In Orbit
Besitzer/Staat SPXS/US

Most Searched